Flag for Germany Weather past 2 weeks in Soltau, Lower Saxony, Germany

Now
59 °F

Passing clouds.


Feels Like: 58 °F
Forecast: 55 / 73 °F
Wind: 6 mph from East

Location: Fassberg

Current Time: Sep 18, 2014 at 10:10:30 PM

Latest Report: Sep 18, 2014 at 9:20 PM


Visibility: N/A

Pressure: 29.92 "Hg

Humidity: 88%

Dew point: 55 °F

Location of SoltauLocation

Historic Weather in Soltau — Graph

°F

Soltau temperature yesterday

Maximum temperature yesterday: 73 °F (at 3:20 PM)
Minimum temperature yesterday: 55 °F (at 4:20 AM)
Average temperature yesterday: 63 °F

Past Weeks' High & Low Weather Summary

 TemperatureHumidityPressure
High79 °F (Sep 6, 2:20 PM)100% (Sep 4, 6:20 AM)30.27 "Hg (Sep 4, 6:20 AM)
Low46 °F (Sep 8, 5:20 AM)49% (Sep 8, 5:00 PM)29.86 "Hg (Sep 6, 3:20 PM)
Average61 °F83%30.06 "Hg
* Reported Sep 3 8:20 PM — Sep 18 8:20 PM, Soltau, Weather by CustomWeather, © 2014

Note: Actual official high and low records may vary slightly from our data, if they occured in-between our weather recording intervals... More about our weather records

Advertising

Soltau weather history for previous 24 hours

 ConditionsComfort  
Time TempWeatherWind HumidityBarometerVisibility
8:20 PM
Sep 18
61 °FPassing clouds.7 mph83%29.92 "HgN/A
7:20 PM64 °FPassing clouds.6 mph78%29.92 "HgN/A
6:20 PM70 °FPassing clouds.6 mph64%29.92 "HgN/A
5:20 PM72 °FPassing clouds.6 mph61%29.92 "HgN/A
4:20 PM73 °FPassing clouds.8 mph57%29.92 "HgN/A
3:20 PM73 °FPassing clouds.9 mph57%29.92 "HgN/A
2:20 PM72 °FPassing clouds.10 mph57%29.92 "HgN/A
1:20 PM72 °FPassing clouds.8 mph57%29.92 "HgN/A
12:49 PM70 °FPassing clouds.12 mph64%29.92 "HgN/A
12:20 PM68 °FMild.12 mph64%29.95 "HgN/A
11:20 AM66 °FMild.10 mph68%29.95 "HgN/A
10:20 AM63 °FMild.9 mph77%29.95 "HgN/A
9:20 AM59 °FCool.9 mph88%29.95 "HgN/A
9:00 AM59 °FCool.9 mph88%29.95 "Hg5 mi
8:20 AM57 °FFog.7 mph88%29.95 "Hg3 mi
7:20 AM54 °FFog.7 mph94%29.95 "Hg2 mi
6:45 AM54 °FFog.8 mph94%29.95 "Hg2 mi
6:20 AM54 °FFog.7 mph94%29.95 "Hg3 mi
5:20 AM54 °FCool.7 mph100%29.95 "Hg5 mi
4:20 AM55 °FCool.7 mph94%29.95 "Hg5 mi
3:20 AM55 °FCool.6 mph94%29.95 "HgN/A
2:20 AM57 °FCool.6 mph88%29.95 "HgN/A
1:20 AM57 °FCool.7 mph88%29.95 "HgN/A
12:20 AM59 °FCool.7 mph88%29.95 "HgN/A
11:20 PM
Sep 17
61 °FCool.8 mph83%29.98 "HgN/A
11:00 PM61 °FPassing clouds.9 mph83%29.98 "HgN/A
10:20 PM61 °FPassing clouds.8 mph83%29.98 "HgN/A
Weather by CustomWeather, © 2014

See weather overviewHow to use our weather pages